Location: Skalnate Pleso
(49.1889°N, 20.2450°E)
Time: 11:41:53
(UTC+02:00)

Cosmos 1269 Rocket - Pass Details

Date: 29 February 2020
Orbit: 772 x 780 km, 74.1° (Epoch: 07 April)

Event Time Altitude Azimuth Distance (km) Brightness Sun altitude
Exits shadow 02:00:12 14° 9° (N) 2,090 6.7 -40.7°
Drops below altitude 10° 02:00:54 10° 12° (NNE) 2,333 7.0 -40.6°
Sets 02:03:26 0° 20° (NNE) 3,266 8.0 -40.3°
